Starlink 30369

operational
NORAD ID: 57781 Int'l Des: 2023-134 Owner: SPXS Country: US Constellation: starlink
LEOCIRCULAR

About Starlink 30369

Description loading...

Live Position

Loading 3D Globe...

Upcoming Passes

Altitude History

Altitude vs Time

uPlot chart will show altitude changes over time

Two-Line Element Set

1 57781U 23134L 25259.73894900 -.00000183 00000-0 15129-5 0 9990
2 57781 43.0043 62.7721 0001451 269.4338 90.6338 15.02534128113303
Epoch: Sep 16, 2025 • Age: 33 hours

Current Status

Altitude 558.9 km
Velocity 7.58 km/s
Sub-Earth Point 0.57°N, 159.08°W
Launch Date Sep 4, 2023
Age 2 years
Type internet

Technical Details

Classification Payload
Mass 730.00 kg
Dry Mass 700.00 kg
Total Mass 730.00 kg
Length 0.30 m
Diameter 4.10 m
Span 29.00 m
Shape Box + pan
Manufacturer SPXS
Bus Type Starlink V2M
Phase Status In Orbit
Owner/State SPXS/US

Large Constellations

Loading constellations...